Regional Weather Roundup
Issued by NWS

Home | Current Version | Previous Version | Text Only | Print | Product List | Glossary Off
Versions: 1 2 3 4 5 6 7 8 9 10 11 12 13 14 15 16 17 18 19 20 21 22 23 24 25 26 27 28 29 30 31 32 33 34 35 36 37 38 39 40 41 42 43 44 45 46 47 48 49 50

000
ASUS43 KOAX 282002
RWRNE

WEATHER ROUNDUP FOR NEBRASKA
NATIONAL WEATHER SERVICE OMAHA NE
200 PM CST SUN DEC 28 2014

NOTES: SATELLITE DATA IS BEING USED TO AUGMENT CLOUD COVER ABOVE
       12000 FEET.
       "FAIR" INDICATES FEW OR NO CLOUDS BELOW 12,000 FEET WITH NO
       SIGNIFICANT WEATHER AND/OR OBSTRUCTIONS TO VISIBILITY.

  * THESE STATIONS DO NOT REPORT WEATHER SUCH AS RAIN...SNOW OR FOG.

NEZ001>004-019>022-054>056-282100-
NEBRASKA PANHANDLE

CITY           SKY/WX    TMP DP  RH WIND       PRES   REMARKS
SCOTTSBLUFF    CLOUDY    30  21  69 W7        29.88F WCI  23
ALLIANCE       LGT SNOW  28  24  85 W13       29.89F FOG     WCI  17
CHADRON        CLOUDY    25  16  68 CALM      29.91F
SIDNEY         CLOUDY    28  14  55 S6        29.89F WCI  22
$$

NEZ057>060-069>072-079>082-282100-
SOUTHWEST NEBRASKA

CITY           SKY/WX    TMP DP  RH WIND       PRES   REMARKS
NORTH PLATTE   CLOUDY    24  12  60 CALM      29.98F
IMPERIAL       CLOUDY    27  14  58 SE10      29.94F WCI  17
LEXINGTON      PTSUNNY   25  16  70 CALM      30.02F
MCCOOK         CLOUDY    25  15  66 CALM      29.99F
$$

NEZ005>010-023>029-035>040-094-282100-
NORTH CENTRAL NEBRASKA

CITY           SKY/WX    TMP DP  RH WIND       PRES   REMARKS
VALENTINE      CLOUDY    23  10  57 CALM      29.99F
AINSWORTH      CLOUDY    21  13  70 CALM      29.99F
BROKEN BOW     CLOUDY    26  17  68 SW8       30.00F WCI  18
ORD            CLOUDY    23  14  68 CALM      30.03F
$$

NEZ041-046>049-061>064-073>077-083>087-282100-
SOUTH CENTRAL NEBRASKA

CITY           SKY/WX    TMP DP  RH WIND       PRES   REMARKS
GRAND ISLAND   CLOUDY    27  14  58 CALM      30.06F
AURORA         PTSUNNY   27  17  65 CALM      30.06F
HASTINGS       CLOUDY    27  16  63 CALM      30.04F
HEBRON         MOSUNNY   37  21  52 SW7       30.08F WCI  32
HOLDREGE       CLOUDY    25  16  69 CALM      30.02F
KEARNEY *      CLOUDY    25  14  63 CALM      30.03F
YORK           MOSUNNY   27  18  69 SW5       30.07F WCI  21
$$

NEZ011>018-030>034-042>045-282100-
NORTHEAST NEBRASKA

CITY           SKY/WX    TMP DP  RH WIND       PRES   REMARKS
NORFOLK        MOSUNNY   25  15  66 CALM      30.07F
BLAIR          SUNNY     31  22  69 CALM      30.10S
COLUMBUS *     MOSUNNY   27  12  54 NE3       30.09F
FREMONT        MOSUNNY   27  17  66 NW3       30.11F
TEKAMAH        MOSUNNY   27  17  66 CALM      30.12F
WAYNE          MOSUNNY   22  15  74 NE6       30.09F WCI  14
$$

NEZ050>053-065>068-078-088>093-282100-
SOUTHEAST NEBRASKA

CITY           SKY/WX    TMP DP  RH WIND       PRES   REMARKS
LINCOLN        MOSUNNY   33  18  53 W3        30.11F
OMAHA EPPLEY   PTSUNNY   32  20  61 CALM      30.13F
FALLS CITY     SUNNY     41  20  43 SW8       30.12F
NEBRASKA CITY  SUNNY     37  18  46 SW6       30.11S WCI  32
$$

NEZ044-045-051>053-067-282100-
OMAHA AREA

CITY           SKY/WX    TMP DP  RH WIND       PRES   REMARKS
OMAHA EPPLEY   PTSUNNY   32  20  61 CALM      30.13F
BLAIR          SUNNY     31  22  69 CALM      30.10S
FREMONT        MOSUNNY   27  17  66 NW3       30.11F
OFFUTT AFB     SUNNY     31  20  63 S5        30.11F WCI  27
WAHOO          FAIR      29  19  64 CALM      30.10F
$$


USA.gov is the U.S. government's official web portal to all federal, state and local government web resources and services.